Лентехи

Грузия     42°47′20″N   42°43′21″E
темп.,
°C
ветер,
м/с
пор.,
м/с
влажн.,
%
обл.,
%
осадки,
мм/ч
давл.,
гПа
погр.,
м
13 апреля, вт
вт1301:000в1198100 0.6 102330
04:00+1всв1299100 1.8 102150
07:00+2всв12100100 2.6 1020105
10:00+3всв1299100 5.3 1020111
13:00+5юв239398 1.6 1019306
16:00+4юз0199100 3.6 1019196
19:00+2ююз23100100 1.4 1017190
22:00−1юв1299100 13.1 1023112
14 апреля, ср
ср1401:000с119878 0.7 102146
04:00−2с229697 0.7 102124
07:00−3ссз2294100 0.0 102223
10:00+2ю019888 0.0 1019371
13:00+4ююз229482 0.8 1018630
16:00+6ююз227952 1.6 10171014
19:00+4юз119420 0.1 101824
22:00−1с329165 0.1 102232
15 апреля, чт
чт1501:00−2с33864 0.0 102344
04:00−3с44839 0.0 102349
07:00−3с447921 0.0 102352
10:00+6ссв11635 0.0 1017432
13:00+9ю226560 0.1 10161397
16:00+9ююз12645 1.3 10161117
19:00+6с118698 0.7 101714
22:00
16 апреля, пт
пт1601:00+1с328876 0.0 102033
04:00+1с328799 0.0 102037
07:00+2с3285100 0.0 101945
10:00+8вюв1167100 0.0 1016422
13:00+10с116287 0.7 10161115
16:00+10юз236778 3.1 1016961
19:00+7з118328 2.5 101719
22:00+4ссв1189100 2.2 101911
17 апреля, сб
сб1701:00+3с2292100 0.5 102148
04:00+3с1195100 1.8 1021141
07:00+4св1294100 0.8 1020102
10:00+4всв1195100 3.6 1020208
13:00+5ююв1195100 0.6 1019447
16:00+6вюв0192100 2.4 1018318
19:00+5зюз1198100 4.9 1019112
22:00+4ссв1297100 11.0 1021122